This is the latest recevied weather packets stored in our database for station/object W0PE-1. If no packets are shown the sender has not sent any weather packets the latest 10 day(s).
| Time | Temp. | Humidity | Pressure | Rain* | Wind** | Luminosity | Snow |
|---|---|---|---|---|---|---|---|
| 1777512638 | 20.56° C | 52% | 1013.4 hPa | 0 mm | - | - | - |
| 1777511736 | 21.11° C | 52% | 1013.3 hPa | 0 mm | - | - | - |
| 1777510839 | 21.11° C | 53% | 1013.3 hPa | 0 mm | - | - | - |
| 1777509936 | 21.67° C | 52% | 1013.5 hPa | 0 mm | - | - | - |
| 1777509035 | 21.67° C | 54% | 1013.6 hPa | 0 mm | - | - | - |
| 1777508135 | 21.67° C | 52% | 1013.5 hPa | 0 mm | - | - | - |
| 1777507234 | 22.22° C | 50% | 1013.3 hPa | 0 mm | - | - | - |
| 1777506333 | 22.22° C | 52% | 1013.4 hPa | 0 mm | - | - | - |
| 1777505434 | 22.78° C | 53% | 1013.4 hPa | 0 mm | - | - | - |
| 1777504533 | 22.78° C | 52% | 1013.3 hPa | 0 mm | - | - | - |
| 1777503638 | 23.33° C | 51% | 1013.6 hPa | 0 mm | - | - | - |
| 1777502729 | 23.33° C | 49% | 1013.6 hPa | 0 mm | - | - | - |
| 1777501826 | 23.89° C | 48% | 1013.7 hPa | 0 mm | - | - | - |
| 1777500924 | 23.89° C | 48% | 1014 hPa | 0 mm | - | - | - |
| 1777500026 | 23.33° C | 48% | 1014.1 hPa | 0 mm | - | - | - |
| 1777499122 | 23.33° C | 48% | 1014.2 hPa | 0 mm | - | - | - |
| 1777498221 | 23.89° C | 48% | 1014.4 hPa | 0 mm | - | - | - |
| 1777497321 | 23.89° C | 49% | 1014.3 hPa | 0 mm | - | - | - |
| 1777496419 | 23.33° C | 50% | 1014.3 hPa | 0 mm | - | - | - |
| 1777495517 | 23.89° C | 49% | 1014.5 hPa | 0 mm | - | - | - |
| 1777494625 | 23.89° C | 50% | 1014.6 hPa | 0 mm | - | - | - |
| 1777493721 | 23.33° C | 49% | 1014.4 hPa | 0 mm | - | - | - |
| 1777492816 | 23.89° C | 49% | 1014.5 hPa | 0 mm | - | - | - |
| 1777491925 | 23.89° C | 45% | 1014.4 hPa | 0 mm | - | - | - |
| 1777491014 | 24.44° C | 45% | 1014.8 hPa | 0 mm | - | - | - |
* Rain latest hour (hover to see other rain measurements)
** Current wind speed in m/s (hover to see current wind gust speed)